www.pogodaiklimat.ru

Погода и климат >> Архив погоды >> Украина >> Харьков


АРХИВ ПОГОДЫ в Харькове

Время (UTC), дата Ветер
(напр.,м/с)
 
Видим.   Явления Облачность Т
(С)
Тd
(С)
f
(%)
Тe
(С)
Тes
(С)
Комфортность P
(гПа)
Po
(гПа)
Тmin
(С)
Tmax
(С)
R
(мм)
R24
(мм)
S
(см)
03 20.05 В 3 10 км ясно +14.0 +5.8 58 +13 +14 по сезону 1019.0 1000.5
06 20.05 В 6 10 км 3/0
[Ci fib]
+20.3 +5.6 38 +21 +24 комфорт 1020.0 1001.9 +10.8
09 20.05 СВ 4 10 км 3/0
[Ci fib]
+22.9 +4.8 31 +23 +34 комфорт 1019.9 1001.9
12 20.05 В 5 10 км ясно +24.3 +4.8 28 +24 +31 комфорт 1019.2 1001.3
15 20.05 В 4 10 км ясно +23.5 +3.7 28 +23 +25 комфорт 1018.4 1000.5
18 20.05 СВ 4 10 км ясно +16.7 +4.1 43 +16 +16 по сезону 1018.9 1000.6 +24.5
21 20.05 В 5 10 км ясно +15.5 +3.8 46 +14 +14 по сезону 1019.5 1001.1
00 21.05 В 4 10 км ясно +12.0 +3.4 56 +10 +10 по сезону 1020.1 1001.4
03 21.05 В 4 10 км 3/0
[Ci fib]
+12.8 +3.7 54 +11 +12 прохладно 1020.0 1001.4
06 21.05 ЮВ 7 10 км 6/0
[Ci]
+19.4 +2.3 32 +19 +21 тепло 1019.9 1001.7 +10.2
09 21.05 В 8 10 км 8/0
[Ci]
+23.0 +3.4 28 +23 +25 комфорт 1018.7 1000.7
12 21.05 ЮВ 7 10 км 8/0
[Ac trans Ci]
+24.7 +2.2 23 +24 +26 комфорт 1017.1 999.3
15 21.05 ЮВ 6 10 км {ливн. осадки} 9/4 1000 м
[Cb cap Ac trans]
+20.6 +6.3 39 +21 +22 комфорт 1016.1 998.1
18 21.05 В 3 10 км {ливн. осадки} 9/0
[Ac trans]
+18.3 +7.5 49 +19 +19 тепло 1015.7 997.5 +24.7 0.0
21 21.05 В 3 10 км 6/0
[Ac trans Ci fib]
+17.2 +7.0 51 +17 +17 тепло 1015.1 996.9
00 22.05 ЮВ 3 10 км 9/0
[Cs]
+15.4 +7.1 58 +15 +15 тепло 1014.3 996.0
03 22.05 В 3 10 км 9/5 1000 м
[Sc Ac trans]
+15.4 +8.1 62 +15 +15 по сезону 1012.9 994.6
06 22.05 В 5 10 км 8/3 1000 м
[Cb cap Ac trans]
+19.8 +10.2 54 +21 +23 комфорт 1011.7 993.7 +14.2
09 22.05 З 1 10 км 9/6 1000 м
[Sc Ac trans]
+22.3 +10.3 47 +24 +28 комфорт 1010.8 993.0
12 22.05 Ю 9 10 км гроза без осадков 9/5 1000 м
[Cb calv Ac trans]
+21.6 +11.4 52 +24 +24 комфорт 1009.5 991.7
15 22.05 ЮВ 2 10 км в посл. час ливневой дождь {гроза} 9/5 1000 м
[Cb calv Ac trans]
+17.0 +14.9 87 +17 +18 по сезону 1009.4 991.3
18 22.05 В 3 10 км {гроза, ливн. осадки} 8/0
[Ac und]
+16.4 +15.5 94 +16 +16 по сезону 1009.3 991.2 +25.1 2
21 22.05 В 3 4800 м дымка {ливн. осадки} 6/0
[Ac trans]
+14.4 +13.7 96 +13 +13 по сезону 1008.7 990.4
00 23.05 В 2 8000 м дымка {ливн. осадки} 10/10 240 м
[Sc]
+13.7 +13.2 97 +13 +13 по сезону 1008.5 990.2
03 23.05 ЮВ 2 7000 м дымка 9/9 270 м
[St]
+14.4 +13.9 97 +14 +14 по сезону 1007.5 989.3
06 23.05 В 3 10 км 9/9 420 м
[St]
+16.5 +13.3 81 +16 +17 по сезону 1007.7 989.6 +13.7 0.0
09 23.05 ЮЗ 1 10 км 8/5 600 м
[Cu med, cong Ci fib]
+19.4 +12.5 64 +22 +31 комфорт 1007.7 989.8
12 23.05 ЮВ 2 10 км 8/4 1000 м
[Cu med, cong Ac trans Ci fib]
+22.3 +10.1 46 +24 +29 комфорт 1007.1 989.3
15 23.05 З 3 10 км 8/3 1000 м
[Cb calv Ac trans]
+23.0 +11.0 47 +25 +26 комфорт 1006.9 989.2
18 23.05 штиль 0 10 км 9/6 1000 м
[Cb calv Ac trans]
+19.0 +12.0 64 +20 +20 тепло 1007.5 989.5 +23.0
21 23.05 ЮЗ 2 10 км 6/0
[Ac trans]
+16.8 +12.7 77 +17 +17 тепло 1008.0 989.9
00 24.05 Ю 2 10 км в посл. час ливневой дождь 8/3 1000 м
[Cb calv Ac trans]
+16.7 +13.3 80 +17 +17 тепло 1008.1 990.0 0.0
03 24.05 Ю 1 10 км 3/0
[Ac trans]
+15.8 +13.3 85 +16 +17 тепло 1008.4 990.2
06 24.05 З 1 10 км 4/0
[Ac trans]
+20.8 +14.5 67 +25 +33 комфорт 1008.4 990.6 +14.1 0.0
09 24.05 З 2 10 км 8/6 1200 м
[Cu med, cong Ac trans]
+24.3 +13.6 51 +27 +31 жарко 1008.2 990.6
12 24.05 С 1 10 км гроза без осадков {ливн. осадки} [макс. диам. градин 4 мм] 8/6 1080 м
[Cb calv Ac trans]
+17.3 +14.4 83 +18 +23 прохладно 1008.5 990.4
15 24.05 З 1 10 км {гроза, ливн. осадки} 9/5 1000 м
[Cu med, cong Ac trans]
+20.9 +17.5 81 +26 +27 душно 1008.1 990.3
18 24.05 В 2 10 км гроза без осадков {ливн. осадки} 9/4 600 м
[Cb calv Ac trans]
+18.3 +12.8 70 +19 +19 тепло 1008.5 990.5 +25.0 16
21 24.05 В 2 10 км {гроза} 3/0
[Ac trans]
+16.1 +13.8 86 +16 +16 тепло 1008.1 990.0
00 25.05 В 3 10 км в посл. час ливневой дождь {гроза} 8/3 600 м
[Cb cap Ac trans]
+14.9 +13.8 93 +14 +14 тепло 1007.5 989.3 0.4
03 25.05 С 3 4100 м гроза без осадков 8/3 1000 м
[Cb calv Ac trans]
+14.7 +13.8 94 +14 +14 по сезону 1007.5 989.3
06 25.05 ЮВ 4 10 км {гроза} 5/3 1000 м
[Cu hum Ac trans Ci fib]
+19.9 +16.4 80 +22 +26 комфорт 1007.2 989.3 +14.5 0.4
09 25.05 ЮВ 7 10 км гроза без осадков 6/6 1000 м
[Cb calv]
+23.1 +14.3 58 +27 +29 душно 1006.1 988.4
12 25.05 З 3 10 км гроза, ливневой дождь 9/9 700 м
[Cb calv]
+18.2 +15.0 82 +19 +20 прохладно 1006.7 988.7
15 25.05 ЮВ 2 10 км {гроза, ливн. осадки} 8/0
[Ac trans Ci]
+19.4 +16.6 84 +22 +24 комфорт 1005.4 987.5
18 25.05 СВ 2 10 км {гроза, ливн. осадки} 5/0
[Ci fib]
+17.3 +14.9 86 +18 +18 по сезону 1005.2 987.2 +23.9 7
21 25.05 З 2 3700 м дымка 6/0
[Ac trans]
+15.9 +15.0 94 +16 +16 тепло 1005.2 987.1
00 26.05 штиль 0 400 м туман 6/0
[Ac trans Ci fib]
+14.6 +14.6 100 +14 +14 по сезону 1004.4 986.2
03 26.05 штиль 0 1800 м дымка {туман} 8/0
[Ac trans]
+14.2 +13.7 97 +14 +14 по сезону 1004.7 986.5
06 26.05 СЗ 2 10 км {туман} 9/0
[Ac trans]
+17.3 +15.3 88 +18 +22 тепло 1005.1 987.1 +13.6
09 26.05 З 5 10 км в посл. час ливневой дождь 9/6 600 м
[Cb calv Ci fib]
+20.2 +15.0 72 +23 +26 комфорт 1005.3 987.5
12 26.05 З 6 10 км {ливн. осадки} 6/5 1000 м
[Cu med, cong Ci fib]
+22.4 +13.3 56 +25 +28 комфорт 1005.4 987.7
15 26.05 СЗ 3 10 км в посл. час гроза {ливн. осадки} 8/5 1000 м
[Cb calv Ac trans]
+20.2 +14.6 70 +23 +24 комфорт 1007.2 989.3
18 26.05 З 3 10 км {гроза, ливн. осадки} 8/0
[Ac trans]
+19.1 +14.1 73 +21 +21 комфорт 1009.4 991.4 +23.1 1
21 26.05 З 2 10 км 4/0
[Ac trans]
+16.3 +12.5 78 +16 +16 по сезону 1010.9 992.7
00 27.05 З 4 10 км 4/0
[Ac trans]
+16.1 +11.7 75 +15 +15 тепло 1012.0 993.8

 

Местоположение метеостанции Харьков (Харьковская область, Украина): широта 49.97 долгота 36.13 высота над уровнем моря 155 м.

В архиве по умолчанию представлена погода в Харькове за последнюю неделю. Архивные данные за месяц целиком и за предыдущие месяцы, начиная с января 2011 года, Вы можете получить, выбрав интересующий диапазон дат из раскрывающегося списка и нажав кнопку "Ввод!".


*Определитесь, кто Вы:
робот инопланетянин человек

Внимание! Время в таблицах - всемирное. Для получения местного времени необходимо прибавить поправку, которая равна 2 ч.

Смотрите также архив погоды в соседних городах и на ближайших метеорологических станциях:

Погода в Золочеве (Львовская область, Украина) (39 км)
Погода в Боходухове (Харьковская область, Украина) (50 км)
Погода в Комсомольском (Донецкая область, Украина) (50 км)
Погода в Коломаке (Харьковская область, Украина) (66 км)
Погода в Белгороде (Белгородская область, Россия) (80 км)
Погода в Краснограде (Харьковская область, Украина) (82 км)
Погода в Великом Бурлуке (Харьковская область, Украина) (90 км)
Погода в Готне (Белгородская область, Россия) (96 км)
Погода в Купянске (Харьковская область, Украина) (119 км)
Погода в Лозовой (Харьковская область, Украина) (120 км)

Пояснения к столбцам:

Ветер - указаны скорость ветра в м/с - средняя за 10 мин, порывы в срок и между сроками (в фигурных скобках) и направление, откуда дует ветер: С - северный, СВ - северо-восточный, В - восточный, ЮВ - юго-восточный, Ю - южный, ЮЗ - юго-западный, З - западный, СЗ - северо-западный.
Видимость - горизонтальная дальность видимости в метрах или километрах. При видимости от 1 до 10 км при отсутствии осадков обычно наблюдается дымка, при ухудшении видимости до 1 км и менее - туман. В сухую погоду видимость может ухудшаться дымом, пылью или мглою.
Явления - указаны атмосферные явления, наблюдавшиеся в срок или в последний час перед сроком; фигурными скобками обозначены явления, наблюдавшиеся между сроками (за 1-3 часа до срока); квадратными скобками обозначены град или гололедные отложения с указанием их диаметра в мм.
Облачность - указаны через наклонную черту общая и нижняя облачность в баллах и высота нижней границы облаков в метрах; квадратными скобками обозначены формы облаков: Ci - перистые, Cs - перисто-слоистые, Cc - перисто-кучевые, Ac - высококучевые, As - высокослоистые, Sc - слоисто-кучевые, Ns - слоисто-дождевые, Cu - кучевые, Cb - кучево-дождевые. Подробнее классификацию облаков см. в Атласе облаков (PDF).
T - Температура воздуха - температура, измеренная на высоте 2 м над землей.
Td - Температура точки росы - температура, при понижении до которой содержащийся в воздухе водяной пар достигнет насыщения.
f - Относительная влажность воздуха - влажноcть воздуха, измеренная на высоте 2 м над землей.
Te - Эффективная температура - температура, которую ощущает одетый по сезону человек в тени. Характеристика душности погоды. При расчете учитывается влияние влажности воздуха и скорости ветра на теплоощущения человека.
Tes - Эффективная температура на солнце - температура, которую ощущает человек, с поправкой на солнечный нагрев. Характеристика знойности погоды. Зависит от высоты солнца над горизонтом, облачности и скорости ветра. Ночью, в пасмурную погоду, а также при ветре 12 м/с и более поправка равна нулю.
P - Атмосферное давление - приведенное к уровню моря атмосферное давление.
Po - Атмосферное давление - измеренное на уровне метеостанции атмосферное давление.
Tmin - Минимальная температура - минимум температуры воздуха на высоте 2 м над землей.
Tmax - Максимальная температура - максимум температуры воздуха на высоте 2 м над землей.
R - Количество осадков - Количество выпавших осадков за период времени, мм. При наведении курсора мыши на число - период времени, за который выпало указанное количество осадков.
R24 - Количество осадков - Количество выпавших осадков за 24 часа, мм.
S - Снежный покров - Высота снежного покрова, см. При наведении курсора мыши на число - состояние снежного покрова и степень покрытия местности в баллах.